STARLINK-11584, 63106

Orbit data source: Space-Track

STARLINK-11584, 63106 is a payload satellite owned by SpaceX/Seattle (US) in LEO that was launched on Thu, 27 Feb 2025 UTC via an FALCON 9 launch vehicle from the Air Force Eastern Test Range (AFETR). Payload-class satellites include a variety of spacecraft equipped with specific instruments for various scientific and technological missions. These include communications satellites like Starlink; space stations such as the ISS; scientific satellites like the Hubble; Earth observation satellites from companies like Planet Labs, Umbra, and HawkEye 360; GPS; miniature CubeSats for education and research; and military/defense satellites.

Loading next visibility...
Identifier
63106, 2025-039C
Orbit
LEO
Last TLE update
15 hours ago
Origin
Manufacturer
SpaceX/Seattle
Mission
Operational Commercial Communications
Bus & Motor
STARLINK V2M, Unknown motor
Mass
730 kg wet, ~700 kg dry
Launch date (UTC)
2025-02-27 (4 months ago)
Launch vehicle
FALCON 9
Launch site
Air Force Eastern Test Range (AFETR)
Object type
Payload
Rocket body
Debris
Shape & HBR
Box + 2 Pan, 29 m
Radar Cross Section
36.964 m², Large (>1 m²)

Expand to show TLE details & history

TLE from 15 hours ago
0 STARLINK-11584
1 63106U 25039C   25181.78754155  .00159777  00000-0  12244-2 0  9995
2 63106  43.0006 315.6028 0001175 280.3806  79.6929 15.70849644 20717
Epoch: 2025-06-30T18:54Z
TLE epoch observation values (Epoch: 2025-06-30T18:54:03.589Z)
Latitude
-0.00005°
Longitude
112.99546°
Altitude
356.097 km
Speed
7.697 km/s
True Right ascension
21h 02m 24s
True Declination
0° 00' 00"
Sunlit
Object was in full shadow at epoch
Visualization orbit readout
Latitude
-42.8979°
Longitude
11.49615°
Altitude
368.388 km
Speed
7.689 km/s
Apparent Right ascension
11h 50m 52s
Apparent Declination
-47° 32' 36"
Sunlit
Object is in full shadow
Visualization observer readout
Local Sidereal Time
21:23:34
Azimuth
241.557° WSW
Elevation
-62.604°
Doppler factor
1
Orbital elements
Apogee altitude
359.241 km
Perigee altitude
357.657 km
Semi-major axis
6,736.586 km
Eccentricity
0.00012
Inclination
43.0006°
RAAN
315.6028°
Arg. of periapsis
280.3806°
True anomaly
Unknown
Mean anomaly
79.6929°
Eccentric anomaly
Unknown
Mean motion
3.9254 °/min
Orbital period
91.71 mins
BSTAR
0.0012244
Loading maneuver chart data...
Loading SW <> Apogee altitude chart data...
Loading historical data...
Loading historical data...
Loading historical data...
Loading historical data...
Loading historical data...
Loading historical data...
Loading historical data...

STARLINK-11584 Visibility forecast

Observer location: undefined°, undefined°

Span
Click to sort rows by Start time (UTC) header in descending order
Start Az.
Max El. time (UTC)
Max El. Az.
Max El.
End time (UTC)
End Az.
4 mins2025-07-01 11:53:13.836Z194.947° SSW2025-07-01 11:55:13.836Z145.511° SSE19.943°2025-07-01 11:57:13.836Z98.702° ESE
4 mins2025-07-01 13:29:13.836Z258.898° W2025-07-01 13:31:13.836Z32.099° NE43.425°2025-07-01 13:33:13.836Z69.174° E
4 mins2025-07-01 16:42:13.836Z290.077° WNW2025-07-01 16:43:13.836Z297.024° NW42.699°2025-07-01 16:46:13.836Z107.357° ESE
|